Date,TemperatureHighF,TemperatureAvgF,TemperatureLowF,DewpointHighF,DewpointAvgF,DewpointLowF,HumidityHigh,HumidityAvg,HumidityLow,PressureMaxIn,PressureMinIn,WindSpeedMaxMPH,WindSpeedAvgMPH,GustSpeedMaxMPH,PrecipitationSumIn
2013-1-1,23,14,4,11,6,-1,81,73,53,30.40,30.20,7,4,12,0.00
2013-1-2,38,24,12,28,19,7,86,81,68,30.28,30.12,9,4,13,0.00
2013-1-3,30,23,16,26,18,12,86,79,66,30.46,30.27,14,5,21,0.00
2013-1-4,38,23,15,24,17,11,89,76,54,30.38,30.20,7,4,10,0.00
2013-1-5,34,24,18,28,19,14,89,79,62,30.26,30.03,16,6,25,0.00
2013-1-6,38,25,14,25,18,10,86,76,57,30.39,30.18,13,4,20,0.00
2013-1-7,41,32,26,30,25,21,85,75,62,30.18,29.98,12,5,18,0.00
2013-1-8,44,33,25,32,27,21,89,79,64,30.16,29.87,14,5,22,0.00
2013-1-9,47,36,27,34,29,24,88,75,57,30.47,30.16,8,3,10,0.00
2013-1-10,40,38,36,36,30,24,94,76,58,30.36,29.75,12,6,17,0.08
2013-1-11,54,40,28,47,36,23,95,86,75,29.75,29.39,15,8,24,0.01
2013-1-12,28,20,11,22,10,3,78,66,54,30.19,29.75,19,9,24,0.00
2013-1-13,24,14,7,8,4,1,77,66,46,30.42,30.18,11,5,15,0.00
2013-1-14,31,18,8,15,8,3,82,67,47,30.55,30.41,7,2,11,0.00
2013-1-15,38,25,15,18,14,8,80,65,43,30.43,30.09,10,5,16,0.00
2013-1-16,52,36,22,35,26,16,80,68,51,30.25,29.96,12,6,14,0.00
2013-1-17,37,30,22,30,25,19,91,84,72,30.49,30.25,8,3,12,0.00
2013-1-18,53,38,28,35,30,25,95,75,47,30.33,29.90,14,5,15,0.00
2013-1-19,55,39,22,34,27,11,83,64,44,30.36,29.87,16,8,28,0.00
2013-1-20,22,18,13,11,9,6,77,68,53,30.48,30.33,11,4,16,0.00
2013-1-21,15,10,5,9,-1,-6,78,59,47,30.54,30.44,12,5,20,0.00
2013-1-22,22,14,10,12,6,0,82,73,62,30.48,30.33,4,1,9,0.02
2013-1-23,32,19,10,19,11,0,89,70,58,30.58,30.24,12,6,19,0.01
2013-1-24,19,11,2,7,0,-6,72,62,54,30.63,30.27,19,6,19,0.00
2013-1-25,48,28,14,29,17,6,77,63,46,30.29,30.19,9,4,13,0.01
2013-1-26,47,30,15,28,19,9,80,66,47,30.30,30.06,12,7,16,0.00
2013-1-27,42,38,34,40,34,24,95,88,59,30.05,29.70,11,6,17,0.25
2013-1-28,45,39,33,44,38,32,96,96,95,29.90,29.56,6,2,10,0.01
2013-1-29,41,33,31,40,31,28,96,93,88,29.70,29.55,12,7,23,0.00
2013-1-30,30,23,14,28,17,8,93,80,63,29.99,29.64,16,10,24,0.01
2013-1-31,14,7,-1,10,-1,-8,83,68,57,30.51,29.99,16,8,25,0.00
2013-2-1,26,13,-3,18,6,-9,79,72,63,30.53,30.15,14,6,20,0.00
2013-2-2,36,29,24,30,23,18,87,78,69,30.26,30.09,9,4,15,0.01
2013-2-3,42,33,21,29,24,14,79,69,57,30.26,29.81,13,6,18,0.01
2013-2-4,34,28,23,29,22,18,95,80,70,30.05,29.79,13,4,16,0.00
2013-2-5,51,37,25,34,28,22,91,70,46,30.10,29.88,13,5,17,0.00
2013-2-6,52,41,30,39,32,25,84,72,59,30.10,29.85,11,4,15,0.00
2013-2-7,41,34,29,35,29,23,87,81,76,30.27,29.88,14,8,21,0.00
2013-2-8,34,28,26,27,24,22,89,84,75,30.39,30.19,11,5,17,0.00
2013-2-9,49,38,28,38,32,25,91,80,63,30.22,29.71,14,11,22,0.01
2013-2-10,42,36,30,41,32,22,95,84,71,29.80,29.27,19,13,24,0.05
2013-2-11,38,30,24,26,22,19,82,72,59,30.20,29.81,20,8,30,0.00
2013-2-12,48,34,20,28,23,17,89,66,43,30.19,29.93,13,4,14,0.01
2013-2-13,55,39,24,33,27,20,85,64,40,29.94,29.74,11,4,15,0.00
2013-2-14,46,37,24,33,27,14,86,68,45,30.29,29.80,15,8,22,0.00
2013-2-15,34,24,15,22,16,10,92,71,49,30.40,30.29,9,4,15,0.00
2013-2-16,32,24,11,25,18,7,88,77,64,30.39,30.07,9,4,13,0.04
2013-2-17,54,42,26,35,30,20,81,62,49,30.06,29.58,13,8,20,0.00
2013-2-18,43,32,20,33,25,13,82,73,62,30.08,29.55,21,10,30,0.02
2013-2-19,27,17,9,14,4,0,75,59,37,30.44,30.08,16,9,27,0.00
2013-2-20,25,16,4,9,4,-3,74,60,48,30.47,30.29,10,5,13,0.00
2013-2-21,25,22,20,20,15,8,91,77,57,30.32,29.88,14,9,21,0.00
2013-2-22,29,21,12,21,16,8,90,82,68,30.09,29.88,9,5,15,0.10
2013-2-23,38,22,5,27,16,2,88,77,62,30.07,29.90,8,4,14,0.02
2013-2-24,44,31,19,29,24,16,89,75,55,30.10,29.95,5,2,8,0.00
2013-2-25,36,30,27,28,26,23,90,82,70,30.11,29.94,13,6,18,0.00
2013-2-26,32,29,26,29,26,24,92,87,82,29.95,29.81,11,8,18,0.01
2013-2-27,39,30,24,26,23,20,87,77,58,30.12,29.92,16,10,24,0.00
2013-2-28,34,28,25,25,22,20,83,79,70,30.27,30.12,14,8,22,0.00
2013-3-1,29,26,23,21,19,16,83,74,64,30.41,30.25,12,7,16,0.00
2013-3-2,36,28,19,23,19,14,80,70,54,30.40,30.15,8,3,12,0.00
2013-3-3,39,32,25,29,25,21,84,75,66,30.15,29.75,13,8,22,0.00
2013-3-4,44,36,30,32,28,24,85,73,60,30.05,29.70,12,6,14,0.00
2013-3-5,33,27,23,29,19,15,85,71,65,30.43,30.03,21,12,31,0.00
2013-3-6,40,29,21,25,20,15,81,70,51,30.48,30.29,10,4,13,0.00
2013-3-7,49,34,23,32,25,18,82,70,50,30.33,30.14,14,8,18,0.00
2013-3-8,54,41,31,39,32,25,92,71,54,30.22,29.92,15,8,26,0.20
2013-3-9,52,45,36,49,42,33,92,90,84,29.92,29.54,15,7,19,0.24
2013-3-10,36,29,23,34,27,20,93,92,89,29.97,29.64,19,12,35,0.04
2013-3-11,34,26,21,24,20,16,90,77,63,30.05,29.92,12,6,17,0.18
2013-3-12,36,28,21,26,21,16,88,75,63,30.38,30.05,15,8,28,0.03
2013-3-13,37,28,17,23,19,13,85,69,53,30.50,30.29,9,4,13,0.01
2013-3-14,59,43,31,41,32,23,83,66,49,30.29,30.06,9,4,10,0.00
2013-3-15,63,46,35,46,38,32,90,75,51,30.07,29.71,11,4,17,0.00
2013-3-16,39,33,29,36,27,22,89,80,68,30.21,29.83,16,9,19,0.00
2013-3-17,46,34,23,32,26,18,89,72,52,30.19,29.78,11,8,17,0.03
2013-3-18,39,34,26,32,23,14,93,67,44,30.08,29.75,22,10,33,0.09
2013-3-19,52,33,20,29,18,12,72,56,35,30.35,30.07,15,5,21,0.00
2013-3-20,37,25,15,14,10,4,73,53,34,30.44,30.16,13,7,19,0.00
2013-3-21,32,26,20,19,14,12,73,61,48,30.15,29.96,9,5,14,0.00
2013-3-22,35,30,25,23,19,17,74,63,52,30.07,30.00,8,3,10,0.00
2013-3-23,38,32,28,28,25,20,89,76,57,30.15,30.05,12,6,18,0.01
2013-3-24,28,28,27,25,25,24,89,88,87,30.11,30.08,12,9,20,0.00
2013-3-25,29,26,24,21,20,18,79,77,71,30.39,30.33,10,7,13,0.00
2013-3-26,42,30,16,27,19,13,86,67,50,30.44,30.28,6,3,11,0.01
2013-3-27,53,39,26,32,27,20,79,63,43,30.32,30.20,10,6,18,0.00
2013-3-28,62,43,30,38,31,26,86,66,38,30.27,30.18,6,3,9,0.00
2013-3-29,70,53,35,42,35,30,85,55,29,30.23,30.03,10,6,16,0.00
2013-3-30,70,56,48,56,44,35,92,64,34,30.06,29.86,11,6,16,0.30
2013-3-31,59,48,33,41,34,26,88,62,31,30.13,29.92,17,8,23,0.04
2013-4-1,42,32,23,30,20,16,89,64,36,30.35,30.13,12,6,15,0.01
2013-4-2,55,39,24,30,23,17,78,55,35,30.37,30.26,9,2,11,0.00
2013-4-3,59,43,30,33,26,22,72,53,35,30.38,30.22,10,6,15,0.00
2013-4-4,66,48,32,43,33,24,79,56,41,30.24,30.04,11,5,14,0.00
2013-4-5,68,52,33,43,36,28,83,56,39,30.17,29.71,15,9,22,0.00
2013-4-6,72,60,51,47,42,40,71,54,37,29.75,29.56,14,8,21,0.00
2013-4-7,79,58,44,51,44,37,83,60,33,29.84,29.60,14,4,23,0.05
2013-4-8,68,58,47,59,54,45,94,85,72,29.69,29.58,14,5,16,0.04
2013-4-9,63,48,35,59,45,33,94,92,87,29.95,29.55,20,11,27,0.54
2013-4-10,38,36,33,36,34,31,95,94,93,29.97,29.77,13,6,16,0.48
2013-4-11,36,32,30,34,30,28,100,91,85,29.82,29.67,12,8,17,0.06
2013-4-12,42,35,31,32,29,26,89,79,65,30.04,29.75,12,8,18,0.00
2013-4-13,53,42,26,39,32,23,89,71,55,30.06,29.68,13,6,20,0.00
2013-4-14,68,55,43,54,43,32,86,64,48,29.70,29.32,20,9,24,0.07
2013-4-15,47,40,35,33,29,24,74,65,55,30.10,29.66,10,6,17,0.00
2013-4-16,54,43,35,35,31,27,76,62,43,30.25,30.08,13,8,17,0.00
2013-4-17,46,41,37,42,38,34,94,87,64,30.17,29.61,19,9,22,0.80
2013-4-18,37,34,31,35,31,27,94,90,83,29.92,29.69,18,12,25,0.51
2013-4-19,49,38,28,29,25,21,84,61,41,30.13,29.89,14,10,23,0.00
2013-4-20,47,38,26,30,24,20,81,59,41,30.29,30.12,12,5,15,0.00
2013-4-21,69,55,44,50,40,30,91,59,37,30.16,29.97,22,10,25,0.59
2013-4-22,53,45,32,51,43,30,95,93,90,30.19,29.92,15,6,21,1.17
2013-4-23,41,33,28,30,26,21,90,74,58,30.27,30.17,16,10,27,0.24
2013-4-24,60,41,24,39,28,20,87,63,32,30.24,30.05,16,6,24,0.01
2013-4-25,70,52,32,41,35,27,85,56,32,30.27,30.02,15,6,21,0.01
2013-4-26,74,58,49,53,45,38,83,61,46,30.16,30.01,13,8,20,0.00
2013-4-27,68,55,44,54,47,42,93,77,55,30.19,29.93,7,3,11,0.00
2013-4-28,83,64,46,56,50,43,92,65,36,29.94,29.65,13,6,18,0.00
2013-4-29,87,70,56,62,55,50,88,62,33,29.72,29.46,9,4,15,0.00
2013-4-30,78,70,59,57,52,46,66,55,46,29.83,29.43,15,9,24,0.04
2013-5-1,59,43,33,48,37,31,93,81,61,30.41,29.83,24,15,31,0.67
2013-5-2,48,39,32,34,31,28,94,75,53,30.55,30.40,18,10,33,0.31
2013-5-3,45,40,32,33,30,26,81,67,59,30.41,30.05,14,9,23,0.00
2013-5-4,44,39,35,40,36,31,92,88,79,30.15,29.97,17,10,26,0.03
2013-5-5,54,47,41,49,44,39,94,88,80,30.18,30.10,8,5,12,0.03
2013-5-6,68,56,47,56,49,45,93,80,62,30.15,30.01,6,3,10,0.00
2013-5-7,76,63,50,57,52,47,93,70,46,30.06,29.91,7,2,9,0.00
2013-5-8,71,64,57,59,55,51,85,75,63,29.93,29.85,9,4,12,0.00
2013-5-9,69,60,56,61,56,54,95,87,68,29.95,29.82,13,5,17,0.62
2013-5-10,71,59,50,56,49,45,89,70,47,30.06,29.95,12,6,18,0.00
2013-5-11,62,55,46,46,34,25,78,47,32,30.23,29.99,17,8,26,0.00
2013-5-12,67,53,36,38,31,24,73,44,30,30.28,30.10,5,2,7,0.00
2013-5-13,84,66,47,54,44,30,72,47,32,30.10,29.81,15,7,18,0.00
2013-5-14,100,80,59,66,56,51,84,49,22,29.81,29.56,16,7,21,0.00
2013-5-15,85,75,63,56,47,41,54,38,28,29.84,29.69,13,7,19,0.00
2013-5-16,87,74,61,68,58,46,76,58,43,29.81,29.69,10,4,14,0.00
2013-5-17,88,75,64,67,61,58,84,64,44,29.84,29.75,9,4,16,0.00
2013-5-18,86,75,62,69,63,57,86,68,50,29.83,29.63,14,6,22,0.00
2013-5-19,79,66,60,70,61,55,94,86,65,29.75,29.42,19,5,19,0.85
2013-5-20,78,66,56,61,56,51,93,71,50,29.62,29.44,16,8,27,0.01
2013-5-21,64,59,54,56,50,47,86,74,59,29.69,29.56,13,8,19,0.00
2013-5-22,62,55,51,54,49,48,88,80,70,29.95,29.69,9,6,16,0.00
2013-5-23,74,61,51,55,49,43,88,67,41,30.20,29.95,12,6,22,0.00
2013-5-24,75,63,51,56,49,43,76,61,47,30.26,29.99,14,7,24,0.00
2013-5-25,81,67,58,70,59,47,94,76,55,30.09,29.91,13,7,17,0.32
2013-5-26,83,70,63,72,64,59,92,84,66,29.96,29.78,9,6,15,0.00
2013-5-27,77,67,59,68,62,57,95,84,68,29.85,29.55,18,7,22,1.14
2013-5-28,82,70,62,69,64,60,95,80,54,29.67,29.55,9,3,12,0.00
2013-5-29,74,68,62,70,64,60,93,87,81,29.67,29.49,16,7,28,0.72
2013-5-30,74,65,59,67,61,54,95,86,69,29.59,29.46,13,7,22,0.44
2013-5-31,79,68,56,61,53,48,88,62,37,29.66,29.56,13,6,19,0.00
2013-6-1,64,58,54,55,51,47,89,77,57,29.99,29.61,12,8,21,0.02
2013-6-2,70,59,51,53,48,44,85,68,50,30.10,29.98,7,3,12,0.00
2013-6-3,76,63,49,56,51,44,88,66,44,30.03,29.80,13,7,23,0.00
2013-6-4,72,65,58,64,60,54,91,82,72,29.95,29.83,10,5,15,0.08
2013-6-5,75,66,58,62,55,48,92,70,48,30.00,29.91,9,4,15,0.00
2013-6-6,74,64,55,59,52,48,83,66,49,29.96,29.91,7,4,13,0.00
2013-6-7,74,63,53,56,52,48,86,67,49,30.00,29.86,6,2,10,0.00
2013-6-8,70,62,57,64,56,50,93,83,70,29.87,29.63,11,6,18,0.98
2013-6-9,67,62,59,64,59,56,95,89,78,29.79,29.67,9,5,18,0.26
2013-6-10,78,66,57,67,61,55,94,83,66,29.87,29.73,8,3,13,0.00
2013-6-11,87,76,67,73,67,63,88,75,51,29.79,29.64,9,4,13,0.00
2013-6-12,90,78,63,74,66,53,82,68,53,29.94,29.60,13,7,24,0.00
2013-6-13,80,68,58,63,58,53,86,70,46,30.05,29.91,6,3,9,0.00
2013-6-14,87,72,64,73,64,58,92,77,61,29.99,29.72,14,6,25,1.10
2013-6-15,82,73,65,71,66,62,93,79,59,29.89,29.77,14,5,17,0.00
2013-6-16,88,76,67,72,66,59,94,72,47,29.93,29.86,6,2,9,0.00
2013-6-17,89,78,65,66,61,56,84,59,41,29.95,29.86,7,3,12,0.00
2013-6-18,82,72,65,69,60,55,91,67,46,30.02,29.91,7,2,10,0.30
2013-6-19,87,75,64,71,64,57,86,68,49,29.96,29.83,12,5,19,0.00
2013-6-20,90,80,68,75,70,64,89,73,58,29.90,29.74,15,9,22,0.00
2013-6-21,94,84,76,78,73,70,83,70,55,29.81,29.69,12,8,21,0.00
2013-6-22,91,82,72,75,68,60,76,64,53,29.93,29.71,15,8,25,0.00
2013-6-23,81,74,65,72,68,62,92,81,69,29.86,29.68,18,5,21,0.31
2013-6-24,82,75,65,73,70,62,91,84,73,29.94,29.64,12,5,41,0.34
2013-6-25,88,79,71,76,71,65,88,76,62,29.76,29.59,11,5,15,0.02
2013-6-26,92,82,74,73,68,61,93,66,42,29.81,29.58,9,4,19,0.00
2013-6-27,82,74,70,72,67,62,91,79,62,29.93,29.81,9,2,14,0.17
2013-6-28,86,77,68,66,61,55,83,60,40,29.92,29.82,12,6,20,0.00
2013-6-29,81,72,65,62,58,55,75,61,49,29.89,29.82,14,6,23,0.00
2013-6-30,80,70,61,61,56,51,85,62,44,30.06,29.89,9,4,13,0.00
2013-7-1,85,72,58,61,55,50,79,56,39,30.14,30.05,8,4,13,0.00
2013-7-2,84,71,62,63,57,52,78,61,43,30.11,29.99,8,2,12,0.00
2013-7-3,85,71,59,65,59,54,90,67,44,30.01,29.89,8,2,12,0.00
2013-7-4,87,74,60,66,59,54,82,62,41,29.95,29.83,10,5,19,0.00
2013-7-5,86,77,66,69,63,58,76,64,54,29.87,29.77,11,6,16,0.00
2013-7-6,89,78,70,72,66,61,77,67,52,29.82,29.74,12,7,17,0.00
2013-7-7,95,83,73,73,68,62,76,62,44,29.83,29.74,11,6,20,0.00
2013-7-8,92,82,77,75,71,66,78,70,56,29.89,29.82,8,3,11,0.00
2013-7-9,97,84,75,79,74,69,85,71,54,29.87,29.79,9,4,16,0.07
2013-7-10,83,77,70,71,66,62,84,70,53,30.02,29.87,10,4,13,0.01
2013-7-11,86,75,63,68,62,57,85,66,50,30.04,29.90,10,4,14,0.01
2013-7-12,89,78,67,73,65,59,79,66,58,29.95,29.84,13,8,22,0.00
2013-7-13,87,78,72,75,67,61,78,70,62,29.92,29.85,12,8,21,0.03
2013-7-14,86,77,69,67,63,59,79,64,49,30.09,29.91,12,6,19,0.00
2013-7-15,87,77,66,74,67,60,87,72,55,30.13,30.04,6,2,16,0.02
2013-7-16,90,80,69,72,69,65,90,69,52,30.19,30.10,6,2,10,0.00
2013-7-17,93,83,73,74,71,68,87,69,50,30.22,30.08,8,3,14,0.00
2013-7-18,96,84,73,73,70,68,85,64,44,30.09,29.85,12,6,20,0.00
2013-7-19,94,83,76,74,67,61,72,59,38,29.86,29.79,8,4,12,0.05
2013-7-20,88,78,67,67,63,59,81,62,43,29.93,29.78,9,3,10,0.00
2013-7-21,90,79,71,76,70,63,93,76,55,29.86,29.69,7,2,9,0.43
2013-7-22,95,82,69,78,72,64,94,75,53,29.77,29.66,11,4,17,0.00
2013-7-23,80,73,66,68,64,61,90,74,61,29.95,29.75,12,5,20,0.04
2013-7-24,82,72,60,67,61,56,89,70,52,30.03,29.93,6,2,12,0.00
2013-7-25,82,73,68,70,64,61,84,75,60,29.99,29.92,11,4,13,0.04
2013-7-26,78,70,63,65,59,52,92,70,48,30.05,29.91,10,5,18,0.01
2013-7-27,75,65,55,55,50,46,84,62,44,30.09,29.97,8,4,19,0.01
2013-7-28,80,65,51,57,50,46,87,60,38,30.04,29.97,4,2,9,0.00
2013-7-29,66,62,58,63,57,48,94,83,60,30.02,29.97,7,3,13,0.11
2013-7-30,74,68,64,68,65,62,96,88,78,30.06,29.98,6,2,9,0.02
2013-7-31,88,74,63,70,65,61,95,75,52,30.09,29.98,5,1,7,0.00
2013-8-1,86,73,64,70,65,62,93,76,50,30.04,29.80,17,4,24,0.18
2013-8-2,82,73,66,71,66,60,92,78,65,29.96,29.78,9,4,14,0.00
2013-8-3,76,70,63,62,59,57,82,70,58,30.13,29.96,8,4,14,0.02
2013-8-4,78,70,60,66,61,55,86,74,62,30.13,29.97,9,5,13,0.00
2013-8-5,88,75,68,76,70,65,94,85,64,29.98,29.78,9,3,13,0.00
2013-8-6,90,78,67,76,71,64,95,79,58,29.88,29.71,10,3,18,0.07
2013-8-7,84,76,70,74,65,60,89,70,50,29.93,29.75,8,3,13,0.00
2013-8-8,76,70,65,66,63,60,86,78,67,29.97,29.89,6,2,7,0.01
2013-8-9,79,71,63,70,63,58,94,76,58,30.09,29.96,7,2,13,0.02
2013-8-10,84,72,60,67,61,56,92,71,51,30.16,30.03,7,3,13,0.01
2013-8-11,89,76,66,71,66,60,82,71,51,30.07,29.92,10,5,14,0.00
2013-8-12,84,75,69,71,65,61,88,72,48,30.01,29.92,7,4,14,0.00
2013-8-13,78,70,62,63,58,56,85,68,52,30.12,30.01,6,3,11,0.02
2013-8-14,75,67,58,64,58,54,88,73,58,30.16,30.03,6,3,11,0.02
2013-8-15,66,62,59,61,58,57,94,89,80,30.08,30.00,10,5,15,1.20
2013-8-16,73,66,60,61,58,57,93,78,62,30.15,30.07,8,3,12,0.00
2013-8-17,80,69,61,63,58,56,88,70,51,30.16,30.06,9,3,15,0.00
2013-8-18,82,69,57,65,60,54,91,73,53,30.12,30.00,9,4,14,0.00
2013-8-19,86,74,64,72,66,60,89,76,60,30.03,29.87,11,6,16,0.00
2013-8-20,90,79,69,74,69,65,91,74,56,29.91,29.83,11,7,19,0.00
2013-8-21,93,80,70,75,70,66,89,72,52,29.93,29.86,10,6,15,0.00
2013-8-22,82,76,71,71,68,65,86,78,66,30.03,29.89,9,3,12,0.00
2013-8-23,89,78,69,74,70,66,92,76,54,30.02,29.90,10,4,17,0.00
2013-8-24,91,81,74,77,72,68,85,74,60,30.00,29.92,12,7,17,0.02
2013-8-25,95,83,72,76,72,69,90,72,53,30.05,29.95,11,7,17,0.00
2013-8-26,96,84,72,76,72,68,90,69,48,30.00,29.86,11,6,20,0.00
2013-8-27,97,84,74,75,70,66,78,63,46,29.88,29.81,12,7,18,0.00
2013-8-28,96,81,69,73,67,63,86,65,40,29.92,29.84,7,4,13,0.00
2013-8-29,95,82,73,76,72,66,90,72,52,29.93,29.82,8,4,14,0.02
2013-8-30,99,84,72,78,73,68,86,71,43,29.83,29.74,7,3,10,0.00
2013-8-31,94,80,72,76,72,69,92,78,51,29.81,29.70,7,2,9,0.03
2013-9-1,82,74,68,72,65,59,95,73,50,29.93,29.69,13,4,19,0.32
2013-9-2,80,69,60,61,57,50,91,69,37,30.05,29.93,6,3,10,0.00
2013-9-3,85,71,57,66,60,54,93,71,51,30.07,29.96,6,2,9,0.01
2013-9-4,86,74,67,68,63,60,81,69,49,30.10,29.98,7,3,11,0.00
2013-9-5,81,73,66,69,65,63,92,76,62,30.14,30.02,8,3,11,0.28
2013-9-6,89,77,68,74,67,61,81,71,59,30.05,29.84,10,6,18,0.00
2013-9-7,89,79,70,75,70,65,87,74,54,29.85,29.77,8,4,11,0.00
2013-9-8,91,80,71,77,72,68,94,79,57,29.84,29.71,7,3,10,0.00
2013-9-9,98,84,74,72,65,62,80,56,32,29.77,29.69,13,6,23,0.00
2013-9-10,97,79,68,70,65,60,90,64,39,29.99,29.77,12,5,16,0.11
2013-9-11,82,74,68,74,69,66,96,85,66,30.05,29.97,8,2,9,0.54
2013-9-12,79,71,63,68,58,50,90,64,41,30.17,30.05,10,4,15,0.00
2013-9-13,73,64,55,55,52,50,85,66,49,30.19,30.03,5,2,11,0.00
2013-9-14,78,65,54,58,53,46,76,64,48,30.04,29.84,10,6,16,0.00
2013-9-15,68,64,62,63,58,52,93,79,62,30.20,29.81,12,6,20,0.34
2013-9-16,66,60,54,56,54,52,91,79,69,30.29,30.17,10,5,15,0.00
2013-9-17,72,63,57,68,60,54,96,92,85,30.17,29.85,11,5,15,0.13
2013-9-18,93,77,66,72,68,64,94,75,48,29.86,29.63,15,8,18,0.00
2013-9-19,82,72,59,70,63,50,93,75,59,29.94,29.63,15,6,19,0.23
2013-9-20,72,60,50,52,48,44,84,65,45,30.04,29.93,8,4,14,0.00
2013-9-21,74,61,46,54,49,42,91,67,46,30.01,29.83,8,4,13,0.00
2013-9-22,80,67,55,59,54,50,87,65,42,29.87,29.76,15,7,18,0.00
2013-9-23,77,65,54,58,52,50,85,65,45,29.81,29.67,15,9,22,0.00
2013-9-24,71,64,60,60,56,53,88,75,63,29.86,29.67,11,4,15,0.00
2013-9-25,80,67,55,61,58,53,94,75,51,29.88,29.70,10,4,16,0.00
2013-9-26,85,72,61,63,60,58,90,68,46,29.77,29.68,18,10,29,0.00
2013-9-27,88,76,69,65,62,60,76,63,42,29.79,29.69,15,9,27,0.00
2013-9-28,72,63,53,63,53,43,92,70,47,30.02,29.60,14,6,22,0.37
2013-9-29,78,61,45,50,46,42,88,62,35,30.04,29.85,11,5,19,0.00
2013-9-30,82,66,52,56,51,47,86,63,39,29.87,29.66,13,6,18,0.00
2013-10-1,79,66,55,58,52,49,88,63,43,29.91,29.73,7,3,11,0.00
2013-10-2,84,70,58,66,60,49,92,72,49,29.92,29.76,10,5,22,0.01
2013-10-3,78,68,60,68,62,58,94,82,66,29.82,29.65,13,4,22,2.79
2013-10-4,63,62,60,61,60,57,96,93,90,29.77,29.67,11,6,16,0.51
2013-10-9,69,64,60,52,50,50,70,62,55,29.95,29.91,10,7,15,0.00
2013-10-10,78,65,54,58,53,48,80,65,46,29.96,29.76,14,8,25,0.00
2013-10-11,80,66,54,61,52,43,84,64,32,29.85,29.58,16,10,22,0.00
2013-10-12,68,55,46,43,39,32,78,56,32,30.25,29.85,8,4,11,0.00
2013-10-13,68,54,40,42,38,33,88,58,35,30.41,30.26,7,3,11,0.00
2013-10-14,60,54,48,57,45,35,95,73,52,30.28,29.71,16,8,28,0.90
2013-10-15,57,48,45,55,41,38,94,78,70,30.05,29.77,13,9,20,0.00
2013-10-16,58,48,41,42,37,32,84,69,39,30.08,29.95,7,4,11,0.00
2013-10-17,61,46,36,44,38,32,89,72,50,30.05,29.88,10,4,15,0.00
2013-10-18,51,42,35,38,33,28,86,71,49,30.14,30.01,6,3,10,0.00
2013-10-19,62,46,32,41,34,28,88,66,43,30.01,29.81,12,4,15,0.00
2013-10-20,65,51,42,47,40,35,81,67,45,30.00,29.69,9,4,16,0.00
2013-10-21,55,43,31,38,34,28,90,73,52,30.10,29.94,7,2,12,0.00
2013-10-22,48,43,38,42,36,32,89,78,70,30.12,29.86,10,4,16,0.00
2013-10-23,43,21,32,38,-26,-100,86,46,78,30.22,30.06,7,2,12,0.00
2013-10-24,50,39,31,35,29,25,88,68,45,30.42,30.21,8,3,14,0.00
2013-10-25,60,43,28,37,30,23,83,61,41,30.42,30.06,12,6,19,0.00
2013-10-26,52,44,34,37,32,27,79,64,48,30.21,30.02,10,4,15,0.00
2013-10-27,70,48,30,42,34,25,84,61,36,30.15,29.83,9,5,18,0.00
2013-10-28,54,46,40,39,36,33,79,70,57,30.18,29.93,18,7,26,0.00
2013-10-29,54,47,41,52,45,38,96,92,76,30.19,29.94,11,6,14,0.25
2013-10-30,58,50,42,57,49,41,97,96,95,29.95,29.74,9,3,14,0.23
2013-10-31,56,44,38,48,39,36,95,84,60,29.75,29.50,9,3,12,0.00
2013-11-1,59,46,38,44,38,34,90,77,46,29.98,29.59,18,6,23,0.01
2013-11-2,58,46,36,40,36,32,88,70,45,30.19,29.98,9,4,16,0.00
2013-11-3,56,48,38,39,36,32,79,63,49,30.09,29.75,20,11,28,0.00
2013-11-4,55,49,42,45,40,35,79,69,57,30.12,29.78,10,5,13,0.00
2013-11-5,46,42,34,44,38,32,95,88,76,30.13,29.81,13,7,18,0.66
2013-11-6,44,36,31,37,32,28,100,85,71,30.29,30.03,10,4,24,0.05
2013-11-7,49,37,29,34,27,22,92,69,41,30.42,30.28,11,4,16,0.06
2013-11-8,64,48,33,39,33,25,74,59,38,30.30,29.74,17,7,24,0.00
2013-11-9,61,49,42,40,35,31,76,60,43,30.34,29.91,8,5,13,0.00
2013-11-10,53,44,31,36,30,26,82,61,44,30.41,30.15,8,4,13,0.00
2013-11-11,46,33,18,39,26,10,88,73,58,30.79,30.09,16,8,26,0.00
2013-11-12,34,21,12,14,10,6,81,62,39,30.95,30.62,9,3,13,0.00
2013-11-13,54,36,21,31,22,11,70,56,41,30.62,30.02,13,8,25,0.00
2013-11-14,53,41,31,36,29,23,74,63,51,30.02,29.90,8,3,11,0.00
2013-11-15,56,42,29,42,33,25,87,73,52,29.90,29.61,10,5,15,0.00
2013-11-16,65,53,46,54,42,33,92,70,42,29.61,29.29,17,8,24,0.00
2013-11-17,55,47,39,45,37,32,80,68,54,30.05,29.28,11,6,13,0.11
2013-11-18,57,40,30,35,28,24,86,65,32,30.26,30.05,6,3,9,0.00
2013-11-19,61,47,35,36,29,25,69,52,34,30.20,29.88,16,9,25,0.00
2013-11-20,54,46,38,38,34,29,86,63,46,29.93,29.74,13,9,19,0.00
2013-11-21,39,30,21,35,25,18,88,84,74,30.58,29.93,14,9,24,0.00
2013-11-22,30,21,14,18,12,8,85,67,46,30.76,30.58,11,5,15,0.03
2013-11-23,25,17,12,14,7,3,78,65,51,30.95,30.68,13,5,17,0.00
2013-11-24,30,20,10,16,10,4,78,67,54,30.83,30.28,11,7,16,0.00
2013-11-25,42,32,25,30,22,14,76,67,57,30.28,30.14,10,6,16,0.01
2013-11-26,32,26,17,24,16,7,81,65,46,30.46,30.22,16,7,22,0.00
2013-11-27,32,22,11,16,11,5,81,65,47,30.47,30.10,10,5,20,0.00
2013-11-28,33,27,22,22,18,15,77,68,55,30.53,30.11,14,6,20,0.00
2013-11-29,44,31,20,29,22,14,81,70,54,30.53,30.18,12,6,15,0.00
2013-11-30,56,39,28,35,28,22,82,66,44,30.18,30.07,5,2,8,0.00
2013-12-1,46,36,28,31,27,23,83,70,52,30.17,29.89,7,2,8,0.00
2013-12-2,61,44,34,38,33,28,86,66,41,29.88,29.52,8,4,11,0.00
2013-12-3,42,38,34,36,34,32,91,83,71,29.69,29.48,10,5,16,0.00
2013-12-4,34,23,16,32,19,8,92,85,71,30.10,29.63,14,9,21,0.00
2013-12-5,16,12,7,8,2,-5,74,64,55,30.52,30.11,15,9,22,0.00
2013-12-6,12,5,-1,-1,-5,-8,71,62,52,30.81,30.52,10,6,15,0.00
2013-12-7,12,5,-2,3,-4,-8,75,67,56,30.86,30.51,10,4,15,0.00
2013-12-8,18,14,9,13,8,1,92,79,61,30.51,30.08,10,5,15,0.00
2013-12-9,12,5,-1,5,-1,-7,92,74,58,30.43,30.18,9,5,12,0.00
2013-12-10,29,21,11,22,12,3,83,70,54,30.34,30.17,8,4,10,0.03
2013-12-11,27,10,3,25,2,-6,92,69,54,30.73,30.30,14,7,23,0.00
2013-12-12,32,18,5,21,11,-2,84,74,60,30.56,30.15,6,4,8,0.02
2013-12-13,31,24,19,24,20,15,92,82,75,30.15,29.93,11,5,18,0.01
2013-12-14,22,19,15,18,13,10,84,80,71,30.27,30.12,10,5,17,0.00
2013-12-15,27,20,15,20,16,11,85,81,71,30.23,30.02,8,3,9,0.00
2013-12-16,46,27,13,33,21,9,87,78,60,30.21,30.03,7,2,8,0.01
2013-12-17,41,32,27,28,22,16,92,67,43,30.31,30.14,12,5,18,0.00
2013-12-18,52,38,26,34,27,18,80,65,48,30.14,29.73,9,4,13,0.00
2013-12-19,35,30,20,28,24,18,89,79,72,29.90,29.73,14,9,20,0.00
2013-12-20,20,16,13,19,13,10,98,85,81,30.03,29.90,12,5,16,0.00
2013-12-21,24,20,18,19,16,13,86,81,76,29.97,29.85,12,5,16,0.00
2013-12-22,21,16,8,18,10,1,88,76,64,30.46,29.91,11,8,19,0.00
2013-12-23,11,5,0,1,-5,-10,76,63,49,30.70,30.47,11,5,15,0.00
2013-12-24,24,12,0,21,6,-7,87,77,70,30.64,30.24,16,7,21,0.00
2013-12-25,41,29,20,30,22,17,89,76,57,30.35,30.28,16,6,24,0.04
2013-12-26,46,32,21,27,22,17,86,67,45,30.29,30.14,6,3,9,0.00
2013-12-27,60,39,24,33,26,18,82,63,33,30.30,30.08,11,5,16,0.00
2013-12-28,58,38,16,33,27,7,84,65,37,30.15,29.75,19,8,28,0.00
2013-12-29,15,8,4,7,-6,-12,75,52,35,30.43,30.15,18,9,25,0.00
2013-12-30,32,16,5,22,4,-8,76,57,45,30.39,30.14,14,6,19,0.00
2013-12-31,32,16,9,20,9,4,83,74,60,30.35,30.08,15,5,23,0.00
2014-1-1,10,7,3,5,2,-4,82,77,71,30.50,30.20,15,8,16,0.00
2014-1-2,9,4,0,-1,-4,-6,89,72,60,30.58,30.46,6,3,12,0.00